DW2380 Weather Reports


time (UTC)temp
C
wind
direction
speed
KPH
gust
KPH
rain 1hr
cm
rain 24hr
cm
rain mn
cm
humidity
%
barometer
mb
20260508085537 12 313 11.3 19.3 0.00 0.00 0.00 38 1026.4
20260508085038 13 9 9.7 19.3 0.00 0.00 0.00 38 1026.3
20260508084553 13 58 9.7 25.7 0.00 0.00 0.00 39 1026.4
20260508084039 13 346 6.4 25.7 0.00 0.00 0.00 39 1026.4
20260508083539 13 346 14.5 25.7 0.00 0.00 0.00 38 1026.4
20260508083049 13 46 11.3 19.3 0.00 0.00 0.00 38 1026.4
20260508082537 13 79 6.4 17.7 0.00 0.00 0.00 40 1026.4
20260508082034 12 72 4.8 17.7 0.00 0.00 0.00 39 1026.5
20260508081548 12 9 11.3 22.5 0.00 0.00 0.00 40 1026.4
20260508081038 12 321 6.4 22.5 0.00 0.00 0.00 40 1026.4
20260508080538 12 52 9.7 22.5 0.00 0.00 0.00 40 1026.3
20260508080047 12 57 8.0 19.3 0.00 0.00 0.00 42 1026.3
20260508075538 12 352 9.7 19.3 0.00 0.00 0.00 41 1026.3
20260508075038 12 34 9.7 19.3 0.00 0.00 0.00 42 1026.3
20260508074546 11 348 6.4 14.5 0.00 0.00 0.00 43 1026.3
20260508074038 11 16 8.0 14.5 0.00 0.00 0.00 40 1026.3
20260508073538 12 360 6.4 16.1 0.00 0.00 0.00 44 1026.2
20260508073108 11 24 8.0 16.1 0.00 0.00 0.00 44 1026.2
20260508072537 11 352 6.4 16.1 0.00 0.00 0.00 42 1026.2
20260508072037 11 33 3.2 9.7 0.00 0.00 0.00 44 1026.2
20260508071550 10 360 3.2 17.7 0.00 0.00 0.00 45 1026.1
20260508071038 10 313 4.8 17.7 0.00 0.00 0.00 47 1026.1
20260508070538 11 5 6.4 14.5 0.00 0.00 0.00 44 1026.1
20260508070051 10 52 4.8 14.5 0.00 0.00 0.00 49 1026.0
20260508065538 10 57 4.8 14.5 0.00 0.00 0.00 47 1026.0
20260508065038 10 22 6.4 14.5 0.00 0.00 0.00 48 1026.0
20260508064602 10 5 8.0 17.7 0.00 0.00 0.00 47 1025.9
20260508064038 9 14 6.4 17.7 0.00 0.00 0.00 49 1025.9
20260508063538 9 5 11.3 19.3 0.00 0.00 0.00 46 1025.8
20260508063043 9 25 6.4 19.3 0.00 0.00 0.00 47 1025.8
20260508062539 9 360 11.3 19.3 0.00 0.00 0.00 46 1025.8
20260508062037 8 344 8.0 16.1 0.00 0.00 0.00 47 1025.8
20260508061552 8 355 6.4 16.1 0.00 0.00 0.00 49 1025.7
20260508061035 8 360 8.0 17.7 0.00 0.00 0.00 48 1025.7
20260508060538 8 335 8.0 17.7 0.00 0.00 0.00 48 1025.6
20260508060048 8 9 8.0 12.9 0.00 0.00 0.00 50 1025.5
20260508055540 7 345 8.0 12.9 0.00 0.00 0.00 52 1025.5
20260508055038 7 351 4.8 11.3 0.00 0.00 0.00 54 1025.4
20260508054605 7 9 4.8 11.3 0.00 0.00 0.00 57 1025.4
20260508054037 7 355 4.8 9.7 0.00 0.00 0.00 59 1025.4
20260508053540 6 17 3.2 11.3 0.00 0.00 0.00 62 1025.4
20260508053047 6 352 3.2 11.3 0.00 0.00 0.00 63 1025.4
20260508052538 6 5 3.2 9.7 0.00 0.00 0.00 65 1025.3
20260508052037 5 5 4.8 8.0 0.00 0.00 0.00 66 1025.2
20260508051547 5 340 3.2 8.0 0.00 0.00 0.00 72 1025.3
20260508051038 5 5 3.2 8.0 0.00 0.00 0.00 69 1025.1
20260508050538 5 11 1.6 4.8 0.00 0.00 0.00 73 1025.1
20260508050056 4 15 1.6 4.8 0.00 0.00 0.00 76 1025.1
20260508045537 3 76 0.0 3.2 0.00 0.00 0.00 77 1025.1
20260508045038 3 0 0.0 3.2 0.00 0.00 0.00 80 1025.0
20260508044543 2 0 0.0 3.2 0.00 0.00 0.00 79 1025.0
20260508044039 2 0 0.0 3.2 0.00 0.00 0.00 80 1025.0
20260508043539 1 71 1.6 3.2 0.00 0.00 0.00 81 1025.0
20260508043055 1 71 0.0 1.6 0.00 0.00 0.00 81 1025.0
20260508042540 1 71 0.0 1.6 0.00 0.00 0.00 83 1024.9
20260508042040 0 0 0.0 1.6 0.00 0.00 0.00 84 1024.9
20260508041547 0 0 0.0 1.6 0.00 0.00 0.00 84 1024.9
20260508041040 0 71 0.0 1.6 0.00 0.00 0.00 85 1024.9
20260508040538 0 71 0.0 3.2 0.00 0.00 0.00 85 1024.8
20260508040057 0 0 0.0 3.2 0.00 0.00 0.00 87 1024.8
20260508035541 0 49 0.0 1.6 0.00 0.00 0.00 88 1024.6
20260508035039 -1 0 0.0 1.6 0.00 0.00 0.00 88 1024.6
20260508034548 -1 44 0.0 1.6 0.00 0.00 0.00 88 1024.5
20260508034038 -1 0 0.0 1.6 0.00 0.00 0.00 88 1024.4
20260508033538 -1 0 0.0 3.2 0.00 0.00 0.00 89 1024.4
20260508033047 -2 37 0.0 3.2 0.00 0.00 0.00 89 1024.2
20260508032539 -2 0 0.0 3.2 0.00 0.00 0.00 89 1024.2
20260508032039 -2 0 0.0 1.6 0.00 0.00 0.00 89 1024.2
20260508031551 -2 0 0.0 4.8 0.00 0.00 0.00 88 1024.2
20260508031038 -3 37 0.0 4.8 0.00 0.00 0.00 88 1024.1
20260508030538 -3 37 1.6 4.8 0.00 0.00 0.00 89 1024.2
20260508030055 -3 36 1.6 4.8 0.00 0.00 0.00 88 1024.0
20260508025538 -3 46 1.6 4.8 0.00 0.00 0.00 88 1024.0
20260508025038 -3 46 1.6 3.2 0.00 0.00 0.00 88 1024.1
20260508024553 -3 46 0.0 1.6 0.00 0.00 0.00 88 1024.0
20260508024039 -3 0 0.0 1.6 0.00 0.00 0.00 88 1023.9
20260508023537 -3 0 0.0 0.0 0.00 0.00 0.00 88 1023.9
20260508023045 -3 0 0.0 0.0 0.00 0.00 0.00 88 1023.7
20260508022537 -3 0 0.0 0.0 0.00 0.00 0.00 88 1023.7
20260508022038 -3 0 0.0 1.6 0.00 0.00 0.00 88 1023.6
20260508021543 -3 0 0.0 3.2 0.00 0.00 0.00 87 1023.5
20260508021037 -3 0 0.0 3.2 0.00 0.00 0.00 88 1023.6
20260508020539 -3 0 1.6 3.2 0.00 0.00 0.00 87 1023.5
20260508020049 -3 17 1.6 3.2 0.00 0.00 0.00 87 1023.3
20260508015539 -3 17 1.6 3.2 0.00 0.00 0.00 87 1023.4
20260508015038 -2 17 0.0 1.6 0.00 0.00 0.00 87 1023.2
20260508014551 -2 17 0.0 1.6 0.00 0.00 0.00 88 1023.3
20260508014039 -2 0 0.0 0.0 0.00 0.00 0.00 88 1023.2
20260508013540 -2 0 0.0 0.0 0.00 0.00 0.00 88 1023.1
20260508013050 -2 0 0.0 0.0 0.00 0.00 0.00 88 1023.1
20260508012539 -2 0 0.0 1.6 0.00 0.00 0.00 88 1023.0
20260508012042 -2 0 0.0 3.2 0.00 0.00 0.00 88 1023.0
20260508011551 -2 0 0.0 3.2 0.00 0.00 0.00 88 1022.9
20260508011042 -2 0 0.0 3.2 0.00 0.00 0.00 88 1022.9
20260508010538 -2 17 0.0 3.2 0.00 0.00 0.00 87 1022.9
20260508010044 -2 0 1.6 4.8 0.00 0.00 0.00 87 1022.8
20260508005541 -2 17 1.6 4.8 0.00 0.00 0.00 87 1022.7
20260508005042 -2 17 1.6 3.2 0.00 0.00 0.00 87 1022.7
20260508004546 -2 17 0.0 3.2 0.00 0.00 0.00 87 1022.7
20260508004039 -2 17 1.6 3.2 0.00 0.00 0.00 86 1022.6
20260508003538 -2 360 1.6 3.2 0.00 0.00 0.00 86 1022.6
20260508003047 -2 360 0.0 3.2 0.00 0.00 0.00 86 1022.5
20260508002537 -2 360 1.6 3.2 0.00 0.00 0.00 85 1022.4
20260508002041 -2 360 0.0 3.2 0.00 0.00 0.00 85 1022.3
20260508001546 -2 0 0.0 1.6 0.00 0.00 0.00 85 1022.2
20260508001038 -2 0 0.0 3.2 0.00 0.00 0.00 85 1022.2
20260508000538 -2 360 0.0 3.2 0.00 0.00 0.00 85 1022.1
20260508000107 -1 360 0.0 3.2 0.00 0.00 0.00 84 1021.9
20260507235541 -1 0 0.0 3.2 0.00 0.00 0.00 84 1021.9
20260507235038 -1 0 0.0 3.2 0.00 0.00 0.00 83 1021.9
20260507234549 -1 360 0.0 3.2 0.00 0.00 0.00 83 1021.8
20260507234041 -1 360 1.6 3.2 0.00 0.00 0.00 83 1021.8
20260507233540 -1 360 0.0 1.6 0.00 0.00 0.00 83 1021.7
20260507233044 -1 360 0.0 1.6 0.00 0.00 0.00 83 1021.7
20260507232538 -1 0 0.0 1.6 0.00 0.00 0.00 83 1021.5
20260507232038 -1 0 0.0 1.6 0.00 0.00 0.00 82 1021.5
20260507231553 -1 0 0.0 4.8 0.00 0.00 0.00 82 1021.5
20260507231038 0 0 0.0 4.8 0.00 0.00 0.00 81 1021.5
20260507230542 0 360 0.0 4.8 0.00 0.00 0.00 80 1021.4
20260507230046 0 0 0.0 6.4 0.00 0.00 0.00 81 1021.5
20260507225538 0 0 1.6 8.0 0.00 0.00 0.00 79 1021.3
20260507225039 0 5 3.2 8.0 0.00 0.00 0.00 78 1021.4
20260507224546 0 5 3.2 8.0 0.00 0.00 0.00 78 1021.3
20260507224038 0 360 1.6 6.4 0.00 0.00 0.00 78 1021.2
20260507223540 0 351 3.2 6.4 0.00 0.00 0.00 78 1021.1
20260507223049 0 348 3.2 6.4 0.00 0.00 0.00 78 1021.1
20260507222538 0 360 1.6 6.4 0.00 0.00 0.00 77 1021.0
20260507222038 0 350 3.2 6.4 0.00 0.00 0.00 76 1021.0
20260507221549 0 355 1.6 6.4 0.00 0.00 0.00 75 1020.9
20260507221037 0 355 1.6 6.4 0.00 0.00 0.00 72 1020.8
20260507220539 1 12 3.2 4.8 0.00 0.00 0.00 70 1020.8
20260507220044 1 11 1.6 4.8 0.00 0.00 0.00 70 1020.7
20260507215541 1 5 1.6 4.8 0.00 0.00 0.00 70 1020.6
20260507215038 1 360 1.6 4.8 0.00 0.00 0.00 71 1020.6
20260507214550 1 10 3.2 6.4 0.00 0.00 0.00 72 1020.5
20260507214038 1 360 3.2 6.4 0.00 0.00 0.00 72 1020.4
20260507213539 1 5 3.2 4.8 0.00 0.00 0.00 71 1020.4
20260507213044 1 13 1.6 4.8 0.00 0.00 0.00 70 1020.3
20260507212536 1 15 1.6 4.8 0.00 0.00 0.00 68 1020.1
20260507212038 1 13 1.6 4.8 0.00 0.00 0.00 67 1020.1
20260507211559 2 351 1.6 4.8 0.00 0.00 0.00 66 1020.1
20260507211039 2 360 1.6 3.2 0.00 0.00 0.00 65 1020.0
20260507210538 2 46 0.0 3.2 0.00 0.00 0.00 65 1019.8
20260507210051 2 0 0.0 3.2 0.00 0.00 0.00 64 1019.8
20260507205538 2 0 0.0 3.2 0.00 0.00 0.00 64 1019.8
20260507205039 3 46 0.0 3.2 0.00 0.00 0.00 63 1019.7
20260507204547 3 46 0.0 4.8 0.00 0.00 0.00 62 1019.6
20260507204039 3 0 0.0 4.8 0.00 0.00 0.00 61 1019.5
20260507203539 3 0 1.6 4.8 0.00 0.00 0.00 63 1019.5
20260507203048 3 23 1.6 4.8 0.00 0.00 0.00 60 1019.4
20260507202541 4 349 0.0 6.4 0.00 0.00 0.00 59 1019.4
20260507202038 5 0 0.0 6.4 0.00 0.00 0.00 57 1019.4
20260507201546 5 349 1.6 6.4 0.00 0.00 0.00 56 1019.3
20260507201039 5 331 0.0 6.4 0.00 0.00 0.00 56 1019.2
20260507200539 5 319 3.2 8.0 0.00 0.00 0.00 55 1019.1
20260507200045 6 331 3.2 8.0 0.00 0.00 0.00 54 1018.9
20260507195537 6 343 1.6 8.0 0.00 0.00 0.00 53 1018.9
20260507195038 6 355 1.6 6.4 0.00 0.00 0.00 52 1018.8
20260507194542 6 319 1.6 8.0 0.00 0.00 0.00 51 1018.8
20260507194039 6 344 3.2 9.7 0.00 0.00 0.00 51 1018.6
20260507193538 6 300 4.8 14.5 0.00 0.00 0.00 50 1018.5
20260507193055 7 340 4.8 14.5 0.00 0.00 0.00 50 1018.5
20260507192537 7 304 3.2 14.5 0.00 0.00 0.00 49 1018.4
20260507192038 7 310 4.8 11.3 0.00 0.00 0.00 48 1018.3
20260507191555 7 319 3.2 8.0 0.00 0.00 0.00 47 1018.2
20260507191039 7 337 3.2 12.9 0.00 0.00 0.00 47 1018.3
20260507190536 7 315 3.2 12.9 0.00 0.00 0.00 46 1018.2
20260507190047 7 328 4.8 9.7 0.00 0.00 0.00 46 1018.2
20260507185538 7 315 3.2 12.9 0.00 0.00 0.00 45 1018.1
20260507185038 8 310 4.8 14.5 0.00 0.00 0.00 45 1018.0
20260507184550 8 336 6.4 14.5 0.00 0.00 0.00 44 1018.0
20260507184039 8 306 4.8 9.7 0.00 0.00 0.00 44 1018.0
20260507183538 8 338 3.2 9.7 0.00 0.00 0.00 43 1018.0
20260507183049 8 320 3.2 14.5 0.00 0.00 0.00 42 1017.9
20260507182538 8 338 4.8 14.5 0.00 0.00 0.00 41 1017.8
20260507182040 8 313 3.2 14.5 0.00 0.00 0.00 42 1017.7
20260507181550 9 334 4.8 20.9 0.00 0.00 0.00 41 1017.7
20260507181038 9 5 8.0 20.9 0.00 0.00 0.00 40 1017.7
20260507180541 9 306 4.8 19.3 0.00 0.00 0.00 39 1017.6
20260507180052 9 324 9.7 19.3 0.00 0.00 0.00 39 1017.5
20260507175539 10 318 9.7 20.9 0.00 0.00 0.00 38 1017.5
20260507175038 10 344 8.0 22.5 0.00 0.00 0.00 37 1017.3
20260507174607 10 321 9.7 22.5 0.00 0.00 0.00 37 1017.3
20260507174038 10 336 9.7 20.9 0.00 0.00 0.00 37 1017.2
20260507173538 10 5 6.4 17.7 0.00 0.00 0.00 36 1017.2
20260507173055 10 348 4.8 20.9 0.00 0.00 0.00 34 1017.1
20260507172540 10 321 9.7 20.9 0.00 0.00 0.00 33 1017.0
20260507172038 11 350 11.3 24.1 0.00 0.00 0.00 33 1017.0
20260507171608 11 311 12.9 24.1 0.00 0.00 0.00 32 1017.0
20260507171038 11 287 11.3 22.5 0.00 0.00 0.00 33 1016.8
20260507170539 11 292 9.7 27.4 0.00 0.00 0.00 32 1016.8
20260507170052 11 321 14.5 27.4 0.00 0.00 0.00 31 1016.8
20260507165541 11 330 12.9 33.8 0.00 0.00 0.00 31 1016.8
20260507165039 11 292 14.5 33.8 0.00 0.00 0.00 30 1016.7
20260507164547 12 309 11.3 20.9 0.00 0.00 0.00 31 1016.7
20260507164039 12 302 6.4 16.1 0.00 0.00 0.00 32 1016.7
20260507163538 12 360 6.4 24.1 0.00 0.00 0.00 31 1016.6
20260507163059 11 346 9.7 24.1 0.00 0.00 0.00 31 1016.5
20260507162539 11 360 12.9 24.1 0.00 0.00 0.00 31 1016.5
20260507162039 12 327 8.0 20.9 0.00 0.00 0.00 31 1016.4
20260507161557 12 345 9.7 22.5 0.00 0.00 0.00 30 1016.4
20260507161038 12 336 14.5 25.7 0.00 0.00 0.00 30 1016.4
20260507160540 12 333 11.3 25.7 0.00 0.00 0.00 29 1016.4
20260507160114 12 360 9.7 29.0 0.00 0.00 0.00 30 1016.3
20260507155538 12 339 9.7 29.0 0.00 0.00 0.00 30 1016.2
20260507155039 12 306 16.1 29.0 0.00 0.00 0.00 30 1016.1
20260507154551 12 10 11.3 25.7 0.00 0.00 0.00 30 1016.0
20260507154039 12 348 12.9 27.4 0.00 0.00 0.00 30 1016.0
20260507153538 13 31 8.0 33.8 0.00 0.00 0.00 31 1016.0
20260507153050 13 12 11.3 33.8 0.00 0.00 0.00 31 1016.0
20260507152541 13 305 14.5 33.8 0.00 0.00 0.00 30 1015.9
20260507152040 13 327 11.3 22.5 0.00 0.00 0.00 30 1015.8
20260507151556 13 328 11.3 22.5 0.00 0.00 0.00 31 1015.8
20260507151039 13 355 12.9 25.7 0.00 0.00 0.00 30 1015.7
20260507150539 13 298 12.9 30.6 0.00 0.00 0.00 32 1015.7
20260507150056 13 290 14.5 30.6 0.00 0.00 0.00 31 1015.7
20260507145542 13 317 11.3 30.6 0.00 0.00 0.00 33 1015.7
20260507145038 14 348 12.9 24.1 0.00 0.00 0.00 32 1015.6
20260507144545 14 329 11.3 27.4 0.00 0.00 0.00 31 1015.6
20260507144039 14 30 11.3 27.4 0.00 0.00 0.00 29 1015.5
20260507143539 14 297 11.3 25.7 0.00 0.00 0.00 30 1015.5
20260507143055 14 352 11.3 25.7 0.00 0.00 0.00 29 1015.4
20260507142537 14 312 8.0 20.9 0.00 0.00 0.00 29 1015.4
20260507142038 14 323 11.3 20.9 0.00 0.00 0.00 30 1015.4
20260507141602 15 334 11.3 20.9 0.00 0.00 0.00 29 1015.3
20260507141038 14 273 11.3 20.9 0.00 0.00 0.00 31 1015.2
20260507140539 15 299 1.6 12.9 0.00 0.00 0.00 29 1015.3
20260507140048 14 285 1.6 20.9 0.00 0.00 0.00 30 1015.3
20260507135539 14 29 6.4 20.9 0.00 0.00 0.00 29 1015.1
20260507135038 15 286 4.8 20.9 0.00 0.00 0.00 29 1015.2
20260507134549 14 250 8.0 20.9 0.00 0.00 0.00 28 1015.3
20260507134039 14 311 4.8 19.3 0.00 0.00 0.00 29 1015.3
20260507133539 15 321 6.4 16.1 0.00 0.00 0.00 30 1015.3
20260507133056 14 22 3.2 17.7 0.00 0.00 0.00 31 1015.3
20260507132540 15 360 6.4 17.7 0.00 0.00 0.00 30 1015.3
20260507132038 14 267 1.6 12.9 0.00 0.00 0.00 29 1015.3
20260507131613 14 271 4.8 16.1 0.00 0.00 0.00 27 1015.3
20260507131039 14 300 9.7 22.5 0.00 0.00 0.00 28 1015.2
20260507130541 14 267 6.4 22.5 0.00 0.00 0.00 32 1015.3
20260507130046 14 263 14.5 22.5 0.00 0.00 0.00 28 1015.3
20260507125537 15 265 12.9 19.3 0.00 0.00 0.00 30 1015.3
20260507125036 13 341 4.8 20.9 0.00 0.00 0.00 29 1015.3
20260507124553 13 270 4.8 20.9 0.00 0.00 0.00 28 1015.3
20260507124036 14 252 12.9 19.3 0.00 0.00 0.00 29 1015.4
20260507123533 14 204 3.2 19.3 0.00 0.00 0.00 28 1015.4
20260507123047 14 53 6.4 22.5 0.00 0.00 0.00 29 1015.4
20260507122533 13 332 9.7 22.5 0.00 0.00 0.00 29 1015.3
20260507122040 13 327 6.4 14.5 0.00 0.00 0.00 28 1015.3
20260507121549 13 36 3.2 17.7 0.00 0.00 0.00 27 1015.3
20260507121037 14 0 6.4 17.7 0.00 0.00 0.00 28 1015.3
20260507120537 14 352 9.7 17.7 0.00 0.00 0.00 31 1015.2
20260507120050 13 82 1.6 14.5 0.00 0.00 0.00 28 1015.2
20260507115534 13 360 6.4 14.5 0.00 0.00 0.00 30 1015.4
20260507115036 13 351 1.6 14.5 0.00 0.00 0.00 28 1015.4
20260507114544 13 0 1.6 14.5 0.00 0.00 0.00 33 1015.4
20260507114042 13 360 6.4 16.1 0.00 0.00 0.00 31 1015.4
20260507113537 13 31 6.4 16.1 0.00 0.00 0.00 31 1015.4
20260507113106 13 48 8.0 16.1 0.00 0.00 0.00 32 1015.4
20260507112541 13 78 3.2 9.7 0.00 0.00 0.00 29 1015.4
20260507112034 13 20 3.2 12.9 0.00 0.00 0.00 31 1015.4
20260507111553 13 15 4.8 14.5 0.00 0.00 0.00 30 1015.4
20260507111036 13 223 4.8 14.5 0.00 0.00 0.00 34 1015.4
20260507110536 13 175 6.4 12.9 0.00 0.00 0.00 33 1015.4
20260507110050 13 154 4.8 14.5 0.00 0.00 0.00 33 1015.4
20260507105535 13 76 6.4 14.5 0.00 0.00 0.00 33 1015.4
20260507105037 13 186 4.8 19.3 0.00 0.00 0.00 33 1015.4
20260507104559 12 150 3.2 20.9 0.00 0.00 0.00 29 1015.4
20260507104037 13 329 9.7 20.9 0.00 0.00 0.00 31 1015.5
20260507103536 13 294 9.7 20.9 0.00 0.00 0.00 34 1015.4
20260507103049 13 182 3.2 11.3 0.00 0.00 0.00 31 1015.3
20260507102537 13 273 3.2 16.1 0.00 0.00 0.00 37 1015.4
20260507102037 12 0 1.6 16.1 0.00 0.00 0.00 31 1015.4
20260507101555 12 269 9.7 16.1 0.00 0.00 0.00 33 1015.4
20260507101037 12 229 4.8 16.1 0.00 0.00 0.00 34 1015.4
20260507100536 12 248 3.2 16.1 0.00 0.00 0.00 34 1015.3
20260507100055 12 342 8.0 16.1 0.00 0.00 0.00 33 1015.3
20260507095542 12 214 8.0 16.1 0.00 0.00 0.00 32 1015.3
20260507095042 13 257 4.8 9.7 0.00 0.00 0.00 35 1015.3
20260507094547 13 263 3.2 8.0 0.00 0.00 0.00 35 1015.2
20260507094044 13 246 3.2 8.0 0.00 0.00 0.00 33 1015.3
20260507093539 12 308 1.6 6.4 0.00 0.00 0.00 33 1015.3
20260507093050 12 261 3.2 16.1 0.00 0.00 0.00 33 1015.3
20260507092539 12 12 4.8 16.1 0.00 0.00 0.00 33 1015.3
20260507092044 12 321 8.0 16.1 0.00 0.00 0.00 34 1015.3
20260507091550 12 352 4.8 12.9 0.00 0.00 0.00 35 1015.4
20260507091041 12 333 1.6 6.4 0.00 0.00 0.00 32 1015.4
20260507090539 12 90 1.6 9.7 0.00 0.00 0.00 34 1015.3
20260507090046 12 184 3.2 12.9 0.00 0.00 0.00 36 1015.4